| time (UTC) | temp F | wind direction | speed MPH | gust MPH | rain 1hr in | rain 24hr in | rain mn in | humidity % | barometer mb |
| 20260504023920 | 60 | 203 | 0.0 | 3.0 | 0.00 | 0.01 | 0.01 | 63 | 1006.3 |
| 20260504023421 | 60 | 193 | 0.0 | 3.0 | 0.00 | 0.01 | 0.01 | 63 | 1006.2 |
| 20260504022921 | 60 | 221 | 0.0 | 3.0 | 0.00 | 0.01 | 0.01 | 62 | 1006.2 |
| 20260504021921 | 61 | 217 | 0.0 | 3.0 | 0.00 | 0.01 | 0.01 | 61 | 1006.2 |
| 20260504021421 | 61 | 223 | 1.0 | 3.0 | 0.00 | 0.01 | 0.01 | 60 | 1006.1 |
| 20260504020921 | 62 | 263 | 1.0 | 5.0 | 0.00 | 0.01 | 0.01 | 60 | 1006.1 |
| 20260504020421 | 62 | 227 | 1.0 | 5.0 | 0.00 | 0.01 | 0.01 | 60 | 1006.2 |
| 20260504015921 | 62 | 209 | 1.0 | 5.0 | 0.00 | 0.01 | 0.01 | 60 | 1006.1 |
| 20260504015421 | 62 | 209 | 1.0 | 3.0 | 0.00 | 0.01 | 0.01 | 60 | 1006.0 |
| 20260504014921 | 62 | 223 | 1.0 | 3.0 | 0.00 | 0.01 | 0.01 | 59 | 1006.0 |
| 20260504013921 | 62 | 217 | 1.0 | 3.0 | 0.00 | 0.01 | 0.01 | 59 | 1006.0 |
| 20260504013420 | 63 | 203 | 1.0 | 7.0 | 0.00 | 0.01 | 0.01 | 58 | 1005.9 |
| 20260504012920 | 63 | 200 | 0.0 | 7.0 | 0.00 | 0.01 | 0.01 | 58 | 1006.0 |
| 20260504011920 | 63 | 217 | 0.0 | 3.0 | 0.00 | 0.01 | 0.01 | 58 | 1005.9 |
| 20260504011422 | 63 | 218 | 0.0 | 2.0 | 0.00 | 0.01 | 0.01 | 58 | 1005.8 |
| 20260504010921 | 63 | 217 | 0.0 | 3.0 | 0.00 | 0.01 | 0.01 | 57 | 1005.9 |
| 20260504010421 | 64 | 217 | 1.0 | 3.0 | 0.00 | 0.01 | 0.01 | 56 | 1005.8 |
| 20260504005921 | 64 | 217 | 0.0 | 3.0 | 0.00 | 0.01 | 0.01 | 55 | 1005.8 |
| 20260504005420 | 64 | 202 | 0.0 | 5.0 | 0.00 | 0.01 | 0.01 | 55 | 1005.8 |
| 20260504004921 | 65 | 196 | 1.0 | 5.0 | 0.00 | 0.01 | 0.01 | 54 | 1005.8 |
| 20260504004421 | 65 | 207 | 1.0 | 3.0 | 0.00 | 0.01 | 0.01 | 52 | 1005.8 |
| 20260504003921 | 65 | 200 | 1.0 | 6.0 | 0.00 | 0.01 | 0.01 | 51 | 1005.8 |
| 20260504003420 | 66 | 207 | 1.0 | 6.0 | 0.00 | 0.01 | 0.01 | 50 | 1005.7 |
| 20260504002921 | 66 | 209 | 1.0 | 6.0 | 0.00 | 0.01 | 0.01 | 50 | 1005.7 |
| 20260504001921 | 66 | 242 | 1.0 | 6.0 | 0.00 | 0.01 | 0.01 | 51 | 1005.8 |
| 20260504001422 | 66 | 279 | 0.0 | 3.0 | 0.00 | 0.01 | 0.01 | 50 | 1005.9 |
| 20260504000920 | 67 | 197 | 1.0 | 3.0 | 0.00 | 0.01 | 0.01 | 49 | 1005.9 |
| 20260504000423 | 67 | 213 | 1.0 | 9.0 | 0.00 | 0.01 | 0.01 | 48 | 1006.0 |
| 20260503235921 | 67 | 192 | 2.0 | 9.0 | 0.00 | 0.01 | 0.01 | 48 | 1006.0 |
| 20260503235421 | 67 | 239 | 2.0 | 8.0 | 0.00 | 0.01 | 0.01 | 48 | 1006.1 |
| 20260503234421 | 67 | 257 | 1.0 | 7.0 | 0.00 | 0.01 | 0.01 | 48 | 1006.1 |
| 20260503233921 | 67 | 212 | 3.0 | 9.0 | 0.00 | 0.01 | 0.01 | 48 | 1006.1 |
| 20260503233421 | 68 | 279 | 3.0 | 9.0 | 0.00 | 0.01 | 0.01 | 47 | 1006.0 |
| 20260503232922 | 68 | 230 | 2.0 | 8.0 | 0.00 | 0.01 | 0.01 | 47 | 1006.0 |
| 20260503231920 | 68 | 229 | 3.0 | 8.0 | 0.00 | 0.01 | 0.01 | 46 | 1006.1 |
| 20260503231421 | 68 | 235 | 3.0 | 8.0 | 0.00 | 0.01 | 0.01 | 46 | 1006.0 |
| 20260503230921 | 68 | 209 | 2.0 | 8.0 | 0.00 | 0.01 | 0.01 | 45 | 1006.2 |
| 20260503230421 | 68 | 235 | 2.0 | 12.0 | 0.00 | 0.01 | 0.01 | 45 | 1006.2 |
| 20260503225921 | 69 | 256 | 3.0 | 12.0 | 0.00 | 0.01 | 0.01 | 45 | 1006.2 |
| 20260503224422 | 69 | 266 | 2.0 | 8.0 | 0.00 | 0.01 | 0.01 | 44 | 1006.3 |
| 20260503223921 | 68 | 193 | 2.0 | 8.0 | 0.00 | 0.01 | 0.01 | 44 | 1006.3 |
| 20260503223421 | 68 | 220 | 1.0 | 9.0 | 0.00 | 0.01 | 0.01 | 45 | 1006.4 |
| 20260503222922 | 68 | 271 | 1.0 | 9.0 | 0.00 | 0.01 | 0.01 | 44 | 1006.5 |
| 20260503222420 | 68 | 250 | 3.0 | 10.0 | 0.00 | 0.01 | 0.01 | 44 | 1006.5 |
| 20260503221921 | 69 | 265 | 3.0 | 10.0 | 0.00 | 0.01 | 0.01 | 43 | 1006.5 |
| 20260503221421 | 69 | 231 | 2.0 | 9.0 | 0.00 | 0.01 | 0.01 | 43 | 1006.5 |
| 20260503220922 | 69 | 269 | 2.0 | 9.0 | 0.00 | 0.01 | 0.01 | 43 | 1006.4 |
| 20260503220421 | 69 | 252 | 3.0 | 15.0 | 0.00 | 0.01 | 0.01 | 42 | 1006.4 |
| 20260503215920 | 69 | 226 | 4.0 | 15.0 | 0.00 | 0.01 | 0.01 | 43 | 1006.3 |
| 20260503215421 | 69 | 228 | 4.0 | 20.0 | 0.00 | 0.01 | 0.01 | 44 | 1006.3 |
| 20260503214921 | 68 | 236 | 5.0 | 20.0 | 0.00 | 0.01 | 0.01 | 43 | 1006.4 |
| 20260503214420 | 68 | 268 | 3.0 | 13.0 | 0.00 | 0.01 | 0.01 | 43 | 1006.5 |
| 20260503213920 | 68 | 251 | 3.0 | 13.0 | 0.00 | 0.01 | 0.01 | 43 | 1006.5 |
| 20260503213421 | 68 | 228 | 3.0 | 14.0 | 0.00 | 0.01 | 0.01 | 42 | 1006.5 |
| 20260503212921 | 69 | 202 | 3.0 | 14.0 | 0.00 | 0.01 | 0.01 | 42 | 1006.6 |
| 20260503212420 | 69 | 210 | 2.0 | 12.0 | 0.00 | 0.01 | 0.01 | 41 | 1006.6 |
| 20260503211921 | 69 | 261 | 2.0 | 12.0 | 0.00 | 0.01 | 0.01 | 42 | 1006.7 |
| 20260503210921 | 70 | 224 | 3.0 | 10.0 | 0.00 | 0.01 | 0.01 | 40 | 1006.7 |
| 20260503210421 | 70 | 201 | 3.0 | 20.0 | 0.00 | 0.01 | 0.01 | 40 | 1006.8 |
| 20260503205922 | 69 | 191 | 9.0 | 20.0 | 0.00 | 0.01 | 0.01 | 41 | 1006.9 |
| 20260503205421 | 68 | 201 | 6.0 | 15.0 | 0.00 | 0.01 | 0.01 | 41 | 1007.1 |
| 20260503204920 | 68 | 194 | 5.0 | 15.0 | 0.00 | 0.01 | 0.01 | 40 | 1007.2 |
| 20260503204420 | 69 | 224 | 4.0 | 12.0 | 0.00 | 0.01 | 0.01 | 41 | 1007.3 |
| 20260503203421 | 69 | 197 | 4.0 | 16.0 | 0.00 | 0.01 | 0.01 | 43 | 1007.6 |
| 20260503202921 | 68 | 269 | 6.0 | 20.0 | 0.00 | 0.01 | 0.01 | 41 | 1007.7 |
| 20260503202420 | 68 | 209 | 7.0 | 20.0 | 0.00 | 0.01 | 0.01 | 40 | 1007.8 |
| 20260503201922 | 69 | 215 | 7.0 | 17.0 | 0.00 | 0.01 | 0.01 | 41 | 1007.8 |
| 20260503201422 | 69 | 197 | 7.0 | 15.0 | 0.00 | 0.01 | 0.01 | 41 | 1008.0 |
| 20260503200920 | 69 | 187 | 6.0 | 15.0 | 0.00 | 0.01 | 0.01 | 40 | 1008.1 |
| 20260503200421 | 68 | 201 | 5.0 | 15.0 | 0.00 | 0.01 | 0.01 | 41 | 1008.1 |
| 20260503195921 | 68 | 209 | 6.0 | 18.0 | 0.00 | 0.01 | 0.01 | 41 | 1008.2 |
| 20260503195421 | 67 | 205 | 7.0 | 18.0 | 0.00 | 0.01 | 0.01 | 41 | 1008.3 |
| 20260503194920 | 68 | 206 | 8.0 | 18.0 | 0.00 | 0.01 | 0.01 | 39 | 1008.4 |
| 20260503193421 | 67 | 213 | 7.0 | 16.0 | 0.00 | 0.01 | 0.01 | 41 | 1008.7 |
| 20260503192921 | 67 | 184 | 8.0 | 16.0 | 0.00 | 0.01 | 0.01 | 43 | 1008.7 |
| 20260503192422 | 66 | 202 | 6.0 | 18.0 | 0.00 | 0.01 | 0.01 | 43 | 1008.8 |
| 20260503190921 | 68 | 204 | 6.0 | 20.0 | 0.00 | 0.01 | 0.01 | 41 | 1009.0 |
| 20260503190420 | 68 | 196 | 7.0 | 20.0 | 0.00 | 0.01 | 0.01 | 41 | 1008.8 |
| 20260503185920 | 68 | 171 | 6.0 | 16.0 | 0.00 | 0.01 | 0.01 | 42 | 1008.9 |
| 20260503185421 | 66 | 189 | 9.0 | 18.0 | 0.00 | 0.01 | 0.01 | 43 | 1009.0 |
| 20260503184921 | 66 | 188 | 9.0 | 18.0 | 0.00 | 0.01 | 0.01 | 43 | 1009.2 |
| 20260503183921 | 66 | 201 | 11.0 | 21.0 | 0.00 | 0.01 | 0.01 | 42 | 1009.2 |
| 20260503183820 | 66 | 201 | 10.0 | 21.0 | 0.00 | 0.01 | 0.01 | 43 | 1009.4 |
| 20260503183421 | 65 | 206 | 7.0 | 21.0 | 0.00 | 0.01 | 0.01 | 46 | 1009.4 |
| 20260503182921 | 65 | 189 | 7.0 | 21.0 | 0.00 | 0.01 | 0.01 | 48 | 1009.6 |
| 20260503182420 | 64 | 182 | 5.0 | 18.0 | 0.00 | 0.01 | 0.01 | 50 | 1009.7 |
| 20260503181921 | 63 | 200 | 7.0 | 18.0 | 0.00 | 0.01 | 0.01 | 50 | 1009.8 |
| 20260503181421 | 63 | 185 | 6.0 | 14.0 | 0.00 | 0.01 | 0.01 | 54 | 1009.9 |
| 20260503180920 | 62 | 210 | 4.0 | 12.0 | 0.00 | 0.01 | 0.01 | 57 | 1010.1 |
| 20260503175923 | 59 | 189 | 6.0 | 12.0 | 0.00 | 0.01 | 0.01 | 60 | 1010.5 |
| 20260503175420 | 59 | 190 | 3.0 | 10.0 | 0.00 | 0.01 | 0.01 | 66 | 1010.6 |
| 20260503174921 | 58 | 169 | 3.0 | 10.0 | 0.00 | 0.01 | 0.01 | 64 | 1010.8 |
| 20260503174421 | 57 | 221 | 3.0 | 8.0 | 0.00 | 0.01 | 0.01 | 66 | 1011.2 |
| 20260503173920 | 56 | 189 | 2.0 | 5.0 | 0.00 | 0.01 | 0.01 | 66 | 1011.3 |
| 20260503173421 | 56 | 226 | 2.0 | 5.0 | 0.00 | 0.01 | 0.01 | 67 | 1011.5 |
| 20260503172921 | 56 | 181 | 3.0 | 6.0 | 0.00 | 0.01 | 0.01 | 66 | 1011.7 |
| 20260503172421 | 56 | 170 | 2.0 | 8.0 | 0.00 | 0.01 | 0.01 | 66 | 1011.9 |
| 20260503171920 | 56 | 189 | 2.0 | 8.0 | 0.00 | 0.01 | 0.01 | 66 | 1012.0 |
| 20260503171421 | 56 | 194 | 3.0 | 8.0 | 0.00 | 0.01 | 0.01 | 70 | 1012.0 |
| 20260503170920 | 55 | 197 | 2.0 | 7.0 | 0.00 | 0.01 | 0.01 | 70 | 1012.1 |
| 20260503170420 | 54 | 186 | 2.0 | 7.0 | 0.00 | 0.01 | 0.01 | 71 | 1012.3 |
| 20260503150921 | 49 | 191 | 1.0 | 2.0 | 0.00 | 0.00 | 0.00 | 80 | 1014.1 |
| 20260503150421 | 49 | 190 | 0.0 | 1.0 | 0.00 | 0.00 | 0.00 | 80 | 1014.2 |
| 20260503130921 | 51 | 201 | 3.0 | 14.0 | 0.00 | 0.00 | 0.00 | 64 | 1014.6 |
| 20260503130420 | 51 | 229 | 3.0 | 14.0 | 0.00 | 0.00 | 0.00 | 64 | 1014.7 |
| 20260503110420 | 46 | 209 | 3.0 | 7.0 | 0.00 | 0.00 | 0.00 | 66 | 1014.5 |
| 20260503090420 | 45 | 202 | 2.0 | 6.0 | 0.00 | 0.00 | 0.00 | 67 | 1015.2 |
| 20260503081420 | 45 | 173 | 1.0 | 6.0 | 0.00 | 0.00 | 0.00 | 65 | 1015.4 |
| 20260503080919 | 45 | 223 | 2.0 | 6.0 | 0.00 | 0.00 | 0.00 | 65 | 1015.3 |
| 20260503080421 | 46 | 215 | 2.0 | 5.0 | 0.00 | 0.00 | 0.00 | 65 | 1015.3 |
| 20260503072920 | 46 | 203 | 2.0 | 6.0 | 0.00 | 0.00 | 0.00 | 63 | 1015.4 |
| 20260503071920 | 46 | 206 | 2.0 | 7.0 | 0.00 | 0.00 | 0.00 | 63 | 1015.5 |
| 20260503071420 | 46 | 206 | 1.0 | 3.0 | 0.00 | 0.00 | 0.00 | 63 | 1015.5 |
| 20260503070419 | 46 | 220 | 2.0 | 5.0 | 0.00 | 0.00 | 0.00 | 62 | 1015.6 |
| 20260503054420 | 47 | 193 | 2.0 | 8.0 | 0.00 | 0.00 | 0.00 | 57 | 1016.2 |
| 20260503051921 | 47 | 207 | 0.0 | 3.0 | 0.00 | 0.00 | 0.00 | 57 | 1016.4 |
| 20260503051420 | 47 | 213 | 0.0 | 3.0 | 0.00 | 0.00 | 0.00 | 57 | 1016.4 |
| 20260503050920 | 47 | 213 | 1.0 | 3.0 | 0.00 | 0.00 | 0.00 | 56 | 1016.5 |
| 20260503045919 | 47 | 209 | 1.0 | 5.0 | 0.00 | 0.00 | 0.00 | 55 | 1016.6 |
| 20260503045421 | 47 | 200 | 1.0 | 6.0 | 0.00 | 0.00 | 0.00 | 55 | 1016.5 |
| 20260503044921 | 47 | 202 | 0.0 | 6.0 | 0.00 | 0.00 | 0.00 | 55 | 1016.6 |
| 20260503044421 | 47 | 203 | 1.0 | 5.0 | 0.00 | 0.00 | 0.00 | 55 | 1016.5 |
| 20260503043920 | 47 | 219 | 1.0 | 3.0 | 0.00 | 0.00 | 0.00 | 55 | 1016.6 |
| 20260503042919 | 47 | 210 | 1.0 | 3.0 | 0.00 | 0.00 | 0.00 | 56 | 1016.6 |
| 20260503042421 | 47 | 217 | 0.0 | 3.0 | 0.00 | 0.00 | 0.00 | 56 | 1016.6 |
| 20260503041420 | 46 | 232 | 0.0 | 1.0 | 0.00 | 0.00 | 0.00 | 59 | 1016.7 |
| 20260503040920 | 46 | 239 | 0.0 | 1.0 | 0.00 | 0.00 | 0.00 | 62 | 1016.7 |
| 20260503040420 | 46 | 239 | 0.0 | 1.0 | 0.00 | 0.00 | 0.00 | 62 | 1016.7 |
| 20260503035920 | 46 | 240 | 0.0 | 1.0 | 0.00 | 0.00 | 0.00 | 62 | 1016.8 |
| 20260503035420 | 47 | 239 | 0.0 | 1.0 | 0.00 | 0.00 | 0.00 | 59 | 1016.8 |
| 20260503034919 | 47 | 239 | 0.0 | 1.0 | 0.00 | 0.00 | 0.00 | 60 | 1016.8 |
| 20260503034421 | 47 | 259 | 0.0 | 1.0 | 0.00 | 0.00 | 0.00 | 62 | 1016.8 |
| 20260503033919 | 46 | 261 | 0.0 | 0.0 | 0.00 | 0.00 | 0.00 | 63 | 1016.7 |
| 20260503032919 | 47 | 261 | 0.0 | 0.0 | 0.00 | 0.00 | 0.00 | 64 | 1016.8 |
| 20260503032419 | 47 | 261 | 0.0 | 0.0 | 0.00 | 0.00 | 0.00 | 63 | 1016.8 |
| 20260503031419 | 47 | 261 | 0.0 | 0.0 | 0.00 | 0.00 | 0.00 | 64 | 1016.8 |
| 20260503030919 | 47 | 261 | 0.0 | 0.0 | 0.00 | 0.00 | 0.00 | 63 | 1016.9 |
| 20260503030422 | 47 | 261 | 0.0 | 0.0 | 0.00 | 0.00 | 0.00 | 63 | 1016.9 |
| 20260503025919 | 47 | 261 | 0.0 | 0.0 | 0.00 | 0.00 | 0.00 | 63 | 1016.9 |
| 20260503025420 | 47 | 261 | 0.0 | 0.0 | 0.00 | 0.00 | 0.00 | 63 | 1017.0 |
| 20260503024919 | 47 | 261 | 0.0 | 0.0 | 0.00 | 0.00 | 0.00 | 62 | 1017.0 |